[[{"header":{"parameterUnit":"m.s-1","parameterCategory":1,"la1":30.2991,"la2":30.254,"lo1":-89.0895,"lo2":-89.0444,"dy":0.0017,"dx":0.0017,"nx":28,"ny":28,"refTime":"2026-01-11T09:00:00:Z","depth":0,"parameterNumber":2,"parameterNumberName":"U-component_of_WINDS"},"data":[0,0,0,0,0,0,0,0,0,0,0,0,0,0,0,0,0,0,0,0,0,0,0,0,0,0,0,0,0,0,0,0,0,0,0,0,0,0,0,0,0,0,0,0,0,0,0,0,0,0,0,0,0,0,0,0,0,0,-3.8893,-3.8894,0,-3.9007,-3.9009,-3.901,-3.8908,-3.8904,-3.89,-3.8896,-3.9015,-3.9022,-3.9029,0,0,0,0,0,0,0,0,0,0,0,0,0,-3.8588,-3.8594,-3.8893,-3.8895,-3.8896,-3.9007,-3.9009,-3.901,-3.8909,-3.8904,-3.8898,-3.8894,-3.9012,-3.9021,-3.9029,0,0,0,0,0,0,0,0,0,0,0,0,0,-3.8713,-3.8596,-3.8893,-3.8859,-3.8857,-3.9007,-3.9009,-3.9011,-3.891,-3.8903,-3.8897,-3.8891,-3.901,-3.902,-3.903,-3.9221,0,0,-3.9063,-3.9067,0,0,0,0,0,0,0,0,-3.8706,-3.8724,-3.8862,-3.8861,-3.8859,-3.8937,-3.8945,-3.9081,-3.8911,-3.889,-3.8895,-3.8888,-3.8994,-3.9006,-3.9041,-3.9227,-3.9232,-3.9064,-3.907,-3.9075,-3.9078,0,0,0,0,0,0,0,-3.8698,-3.8719,-3.8938,-3.8864,-3.8863,-3.8838,-3.8849,-3.897,-3.8976,-3.8891,-3.8884,-3.8899,-3.8992,-3.9031,-3.9043,-3.9233,-3.9063,-3.9073,-3.9079,-3.9084,-3.958,-3.9587,0,0,0,0,0,0,-3.8692,-3.8712,-3.8935,-3.8942,-3.8766,-3.8848,-3.886,-3.8918,-3.8974,-3.8976,-3.8904,-3.8893,-3.9016,-3.9031,-3.9047,-3.9273,-3.9075,-3.9085,-3.9091,-3.9573,-3.9582,-3.9589,0,0,0,0,0,0,-3.8686,-3.8713,-3.893,-3.8825,-3.8851,-3.886,-3.8926,-3.8924,-3.8962,-3.8984,-3.8984,-3.8943,-3.9011,-3.9032,-3.9178,-3.9276,-3.9089,-3.9099,-3.9565,-3.9576,-3.9585,-3.9728,0,0,0,0,0,0,-3.8678,-3.8711,-3.8784,-3.8828,-3.8857,-3.906,-3.8932,-3.8931,-3.8981,-3.8968,-3.902,-3.9023,-3.9008,-3.9163,-3.9189,-3.9287,-3.9107,-3.9557,-3.957,-3.9582,-3.9715,-3.9742,-3.9765,0,0,0,0,0,-3.8667,-3.882,-3.8788,-3.8816,-3.8948,-3.9066,-3.9083,-3.9062,-3.8989,-3.9062,-3.9075,-3.9021,-3.9261,-3.9179,-3.9207,-3.931,-3.955,-3.9566,-3.9581,-3.9703,-3.9737,-3.9765,0,0,0,0,0,0,-3.8789,-3.8825,-3.879,-3.8962,-3.9011,-3.9048,-3.914,-3.9098,-3.917,-3.9155,-3.9127,-3.914,-3.9294,-3.9316,-3.9224,-3.9497,-3.9394,-3.9416,-3.9477,-3.9509,-3.9534,-3.9526,-3.9116,0,0,0,0,0,-3.8836,-3.8928,-3.8955,-3.9104,-3.913,-3.9131,-3.9182,-3.9162,-3.9212,-3.9233,-3.9257,-3.9308,-3.9395,-3.9453,-3.9534,-3.9717,-3.9726,-3.9801,-3.9827,-3.9847,-3.9867,-3.9965,-3.9998,-3.964,-3.964,-3.9639,0,0,-3.8934,-3.8965,-3.9025,-3.9129,-3.9165,-3.9262,-3.915,-3.9257,-3.9328,-3.9249,-3.9389,-3.9408,-3.9463,-3.9629,-3.9703,-3.9652,-3.9968,-3.9867,-3.9883,-3.9892,-3.9984,-4.0018,-4.0048,-3.965,-3.9648,-3.9647,0,0,-3.9161,-3.9194,-3.9322,-3.936,-3.9415,-3.9414,-3.9445,-3.9488,-3.9497,-3.9637,-3.9579,-3.9663,-3.9813,-3.9855,-3.9896,-4.0138,-4.009,-4.0165,-4.0298,-4.0393,-4.0422,-4.0447,-4.0533,-4.0564,-4.0184,-4.0184,-4.0185,0,-3.9276,-3.9419,-3.9393,-3.9504,-3.9551,-3.9482,-3.9611,-3.9649,-3.9729,-3.9764,-3.9705,-3.9891,-3.9924,-4.0097,-4.0156,-4.0192,-4.0226,-4.016,-4.042,-4.0444,-4.0467,-4.0549,-4.0582,-4.0193,-4.0192,-4.0191,-4.019,0,-3.9558,-3.9658,-3.9754,-3.9831,-3.9889,-4.0009,-4.0001,-4.0062,-4.0037,-4.0042,-4.0184,-4.022,-4.0307,-4.0347,-4.0323,-4.0518,-4.0484,-4.0423,-4.0319,-4.0511,-4.0587,-4.0618,-4.0206,-4.0203,-4.02,-4.0198,0,0,-3.9868,-3.9927,-3.9963,-3.9997,-4.0052,-4.0129,-4.0245,-4.0329,-4.0383,-4.0439,-4.0536,-4.0664,-4.0607,-4.0654,-4.0634,-4.0718,-4.0907,-4.0646,-4.0647,-4.0694,-4.1123,-4.1169,-4.1206,-4.0875,-4.0881,-4.0886,-4.1119,0,-4.0098,-4.0299,-4.0278,-4.047,-4.0561,-4.0496,-4.0597,-4.0642,-4.065,-4.0729,-4.0737,-4.0828,-4.0747,-4.0774,-4.0854,-4.0867,-4.0993,-4.085,-4.0965,-4.097,-4.0955,-4.1246,-4.1296,-4.1514,-4.1148,-4.1153,-4.1157,0,-4.0394,-4.046,-4.0661,-4.0701,-4.0738,-4.083,-4.0904,-4.098,-4.103,-4.1029,-4.1081,-4.1046,-4.1162,-4.1055,-4.1215,-4.1118,-4.1163,-4.1177,-4.1185,-4.1196,-4.1076,-4.1266,-4.1583,-4.1616,-4.1204,-4.12,-4.1197,0,-4.06,-4.0739,-4.0877,-4.0908,-4.0958,-4.1024,-4.1048,-4.109,-4.1142,-4.1207,-4.124,-4.1318,-4.1362,-4.1423,-4.141,-4.1333,-4.1574,-4.1465,-4.1577,-4.1578,-4.1632,-4.1629,-4.1962,-4.166,-4.166,-4.1659,-4.1658,0,-4.086,-4.0985,-4.097,-4.1055,-4.1194,-4.1167,-4.1305,-4.1321,-4.136,-4.1446,-4.1395,-4.1478,-4.1455,-4.1537,-4.1527,-4.1661,-4.1681,-4.1684,-4.1681,-4.169,-4.1689,-4.172,-4.1705,-4.1668,-4.1666,-4.1664,-4.1663,0,-4.1114,-4.1109,-4.1255,-4.129,-4.1301,-4.1402,-4.1432,-4.1512,-4.1514,-4.1625,-4.165,-4.1654,-4.1748,-4.174,-4.1846,-4.1839,-4.2005,-4.1983,-4.1989,-4.1984,-4.2096,-4.2086,-4.2461,-4.2509,-4.2176,-4.218,-4.2182,0,-4.1281,-4.1376,-4.142,-4.1474,-4.1503,-4.1591,-4.1642,-4.162,-4.1676,-4.1738,-4.1811,-4.1899,-4.1969,-4.2121,-4.2134,-4.2215,-4.2194,-4.232,-4.2206,-4.2212,-4.2197,-4.2192,-4.2201,-4.2343,-4.2347,-4.235,-4.2352,0,-4.1577,-4.1569,-4.1646,-4.1722,-4.1784,-4.1843,-4.1896,-4.1944,-4.1926,-4.1992,-4.2086,-4.214,-4.2247,-4.2336,-4.2412,-4.2436,-4.2393,-4.2388,-4.2418,-4.2429,-4.2428,-4.243,-4.2051,-4.238,-4.2377,-4.2375,-4.2374,-4.2372,-4.1793,-4.1874,-4.1918,-4.2004,-4.2042,-4.2092,-4.2169,-4.218,-4.2259,-4.2343,-4.2325,-4.2432,-4.2477,-4.2574,-4.2606,-4.2689,-4.2644,-4.2687,-4.2699,-4.271,-4.2723,-4.2414,-4.2703,-4.2702,-4.2701,-4.27,-4.27,0,-4.2087,-4.2111,-4.2191,-4.2267,-4.2335,-4.2285,-4.2341,-4.2402,-4.2496,-4.2542,-4.2611,-4.2719,-4.2804,-4.2823,-4.2905,-4.2967,-4.2949,-4.299,-4.2985,-4.2992,-4.2759,-4.2725,-4.3003,-4.3003,-4.3003,-4.3003,-4.3003,-4.3003,-4.2248,-4.2382,-4.2379,-4.2531,-4.2555,-4.2658,-4.2694,-4.2741,-4.2777,-4.29,-4.297,-4.2981,-4.3016,-4.31,-4.3176,-4.3179,-4.3212,-4.326,-4.3256,-4.3038,-4.3008,-4.2979,-4.2947,-4.3268,-4.3268,-4.3482,-4.3484,-4.3485]},{"header":{"parameterUnit":"m.s-1","parameterCategory":1,"la1":30.2991,"la2":30.254,"lo1":-89.0895,"lo2":-89.0444,"dy":0.0017,"dx":0.0017,"nx":28,"ny":28,"refTime":"2026-01-11T09:00:00:Z","depth":0,"parameterNumber":3,"parameterNumberName":"V-component_of_WINDS"},"data":[0,0,0,0,0,0,0,0,0,0,0,0,0,0,0,0,0,0,0,0,0,0,0,0,0,0,0,0,0,0,0,0,0,0,0,0,0,0,0,0,0,0,0,0,0,0,0,0,0,0,0,0,0,0,0,0,0,0,-5.9623,-5.9624,0,-5.9701,-5.9702,-5.9703,-5.9626,-5.9623,-5.962,-5.9617,-5.9693,-5.9698,-5.9703,0,0,0,0,0,0,0,0,0,0,0,0,0,-5.94,-5.9405,-5.9623,-5.9624,-5.9625,-5.9701,-5.9702,-5.9703,-5.9626,-5.9623,-5.9619,-5.9616,-5.9691,-5.9697,-5.9703,0,0,0,0,0,0,0,0,0,0,0,0,0,-5.949,-5.9406,-5.9623,-5.9596,-5.9594,-5.9701,-5.9702,-5.9704,-5.9627,-5.9623,-5.9618,-5.9614,-5.969,-5.9697,-5.9704,-5.984,0,0,-5.9726,-5.9729,0,0,0,0,0,0,0,0,-5.9485,-5.9498,-5.9599,-5.9598,-5.9596,-5.9649,-5.9652,-5.9749,-5.9628,-5.9614,-5.9617,-5.9612,-5.9682,-5.9689,-5.9714,-5.9843,-5.9847,-5.9727,-5.9731,-5.9734,-5.9736,0,0,0,0,0,0,0,-5.9478,-5.9494,-5.9654,-5.96,-5.9599,-5.9578,-5.9585,-5.967,-5.9673,-5.9615,-5.961,-5.962,-5.968,-5.9707,-5.9715,-5.9848,-5.9726,-5.9733,-5.9737,-5.974,-6.0089,-6.0094,0,0,0,0,0,0,-5.9476,-5.9489,-5.9651,-5.9656,-5.9528,-5.9585,-5.9594,-5.9637,-5.9671,-5.9672,-5.9624,-5.9617,-5.9697,-5.9707,-5.9718,-5.9877,-5.9734,-5.9741,-5.9745,-6.0084,-6.009,-6.0096,0,0,0,0,0,0,-5.9471,-5.9491,-5.9648,-5.9571,-5.959,-5.9594,-5.9643,-5.9641,-5.9668,-5.9678,-5.9678,-5.9652,-5.9694,-5.9707,-5.981,-5.9879,-5.9744,-5.9751,-6.0079,-6.0086,-6.0093,-6.0199,0,0,0,0,0,0,-5.9465,-5.949,-5.9543,-5.9573,-5.9594,-5.9741,-5.9647,-5.9645,-5.9681,-5.9672,-5.9704,-5.9705,-5.9691,-5.9799,-5.9817,-5.9886,-5.9757,-6.0072,-6.0082,-6.0091,-6.0189,-6.0209,-6.0226,0,0,0,0,0,-5.9458,-5.957,-5.9547,-5.9566,-5.9661,-5.9745,-5.9757,-5.974,-5.9687,-5.9739,-5.9746,-5.9704,-5.9869,-5.981,-5.983,-5.9902,-6.0068,-6.0079,-6.009,-6.0181,-6.0205,-6.0225,0,0,0,0,0,0,-5.9547,-5.9573,-5.9548,-5.9673,-5.9708,-5.9732,-5.9798,-5.9767,-5.9816,-5.9805,-5.978,-5.9788,-5.9896,-5.9909,-5.9844,-6.0034,-5.9959,-5.9975,-6.0022,-6.0045,-6.0063,-6.0057,-5.9763,0,0,0,0,0,-5.9582,-5.9649,-5.9668,-5.9776,-5.9795,-5.9794,-5.983,-5.9814,-5.9848,-5.9862,-5.9875,-5.9909,-5.9967,-6.0007,-6.0062,-6.0191,-6.0195,-6.025,-6.0268,-6.0283,-6.0296,-6.0363,-6.0386,-6.0132,-6.0132,-6.0132,0,0,-5.9653,-5.9676,-5.972,-5.9795,-5.982,-5.9888,-5.9806,-5.9883,-5.9933,-5.9873,-5.997,-5.9981,-6.0016,-6.0132,-6.0184,-6.0146,-6.0368,-6.0297,-6.0309,-6.0314,-6.0376,-6.04,-6.0422,-6.0139,-6.0138,-6.0137,0,0,-5.9818,-5.9843,-5.9935,-5.9962,-6.0001,-5.9999,-6.0021,-6.005,-6.0055,-6.0153,-6.0108,-6.0166,-6.0269,-6.0295,-6.0322,-6.0495,-6.0457,-6.0513,-6.0609,-6.0673,-6.0693,-6.0711,-6.0771,-6.0793,-6.0527,-6.0527,-6.0527,0,-5.9902,-6.0005,-5.9986,-6.0066,-6.0099,-6.0048,-6.014,-6.0166,-6.022,-6.0243,-6.0201,-6.0327,-6.0348,-6.0467,-6.0509,-6.0534,-6.0556,-6.0509,-6.0692,-6.071,-6.0726,-6.0782,-6.0805,-6.0533,-6.0533,-6.0532,-6.0531,0,-6.0104,-6.0176,-6.0246,-6.03,-6.0341,-6.0427,-6.0418,-6.0462,-6.0442,-6.0444,-6.0542,-6.0564,-6.0622,-6.0649,-6.063,-6.0766,-6.0741,-6.0696,-6.062,-6.0757,-6.0809,-6.0831,-6.0543,-6.054,-6.0538,-6.0537,0,0,-6.0328,-6.0371,-6.0396,-6.0419,-6.0458,-6.0512,-6.0593,-6.0651,-6.0687,-6.0726,-6.0792,-6.0879,-6.0837,-6.0868,-6.0851,-6.0909,-6.1041,-6.0856,-6.0856,-6.0888,-6.1188,-6.1221,-6.1247,-6.1017,-6.1021,-6.1024,-6.1185,0,-6.0493,-6.0636,-6.0621,-6.0757,-6.0821,-6.0773,-6.0844,-6.0874,-6.0877,-6.0931,-6.0933,-6.0995,-6.0937,-6.0954,-6.1009,-6.1014,-6.1101,-6.1002,-6.1076,-6.1079,-6.1067,-6.1274,-6.1309,-6.146,-6.1205,-6.1209,-6.1211,0,-6.0705,-6.0751,-6.0894,-6.092,-6.0947,-6.1011,-6.106,-6.1113,-6.1145,-6.1143,-6.1177,-6.1149,-6.1228,-6.1152,-6.1259,-6.1192,-6.1221,-6.1228,-6.1233,-6.1238,-6.1153,-6.1283,-6.1508,-6.153,-6.1244,-6.1241,-6.1239,0,-6.0851,-6.095,-6.1047,-6.1068,-6.1102,-6.1148,-6.1164,-6.1191,-6.1226,-6.1269,-6.129,-6.1342,-6.137,-6.1409,-6.1395,-6.1341,-6.1505,-6.1427,-6.1503,-6.1504,-6.1539,-6.1537,-6.177,-6.1561,-6.156,-6.156,-6.156,0,-6.1036,-6.1124,-6.1113,-6.1173,-6.1269,-6.125,-6.1345,-6.1355,-6.1379,-6.1438,-6.14,-6.1455,-6.1435,-6.1488,-6.1478,-6.1567,-6.158,-6.1579,-6.1575,-6.1582,-6.1582,-6.16,-6.1588,-6.1566,-6.1565,-6.1564,-6.1562,0,-6.1216,-6.1212,-6.1315,-6.1338,-6.1346,-6.1416,-6.1434,-6.1489,-6.1489,-6.1564,-6.158,-6.158,-6.1641,-6.1631,-6.1699,-6.1692,-6.1802,-6.1786,-6.1792,-6.1788,-6.1864,-6.1856,-6.2115,-6.2147,-6.1919,-6.1921,-6.1923,0,-6.1333,-6.14,-6.1431,-6.1468,-6.1487,-6.1548,-6.1583,-6.1565,-6.1603,-6.1643,-6.1693,-6.175,-6.1796,-6.1895,-6.1899,-6.195,-6.1934,-6.2021,-6.1941,-6.1945,-6.1933,-6.1928,-6.1934,-6.2037,-6.2039,-6.2041,-6.2043,0,-6.1542,-6.1536,-6.1589,-6.1641,-6.1684,-6.1724,-6.176,-6.1792,-6.1777,-6.1821,-6.1883,-6.1919,-6.1987,-6.2044,-6.2092,-6.2105,-6.2071,-6.2068,-6.2088,-6.2095,-6.2095,-6.2094,-6.1834,-6.2062,-6.206,-6.2059,-6.2058,-6.2057,-6.1693,-6.1749,-6.1779,-6.1838,-6.1863,-6.1897,-6.1949,-6.1956,-6.2008,-6.2063,-6.2049,-6.2119,-6.2146,-6.2207,-6.2226,-6.2278,-6.2246,-6.2275,-6.2282,-6.229,-6.2298,-6.2088,-6.2287,-6.2287,-6.2286,-6.2286,-6.2285,0,-6.1897,-6.1914,-6.1969,-6.202,-6.2066,-6.2031,-6.2068,-6.2109,-6.2171,-6.22,-6.2246,-6.2316,-6.2371,-6.2379,-6.243,-6.2471,-6.2456,-6.2485,-6.2481,-6.2484,-6.2325,-6.2302,-6.2495,-6.2495,-6.2495,-6.2495,-6.2495,-6.2495,-6.2009,-6.2101,-6.2099,-6.2203,-6.2218,-6.2288,-6.2311,-6.2341,-6.2364,-6.2445,-6.2491,-6.2496,-6.2516,-6.2568,-6.2616,-6.2616,-6.2636,-6.267,-6.2665,-6.2516,-6.2495,-6.2475,-6.2453,-6.2675,-6.2676,-6.2819,-6.282,-6.2821]}]]